Weather History for Havre, MT

Change the Weather History Date:

Sunday, January 6, 2013

  Actual Average Record
Temperature  
Mean Temperature 22 °F 17 °F  
Max Temperature 41 °F 28 °F 58 °F (1948)
Min Temperature 3 °F 6 °F -40 °F (1909)
Degree Days  
Heating Degree Days 43 48  
Month to date heating degree days 261 288  
Since 1 July heating degree days 3631 3754  
Cooling Degree Days 0 0  
Month to date cooling degree days 0 0  
Year to date cooling degree days 0 0  
Moisture  
Dew Point 17 °F    
Average Humidity 71    
Maximum Humidity 91    
Minimum Humidity 51    
Precipitation  
Precipitation T in 0.01 in 0.91 in (1883)
Month to date precipitation 0.18 0.08  
Year to date precipitation 0.18 0.08  
Snow  
Snow T in 0.30 in 7.40 in (1989)
Month to date snowfall 2.0 1.7  
Since 1 July snowfall 27.0 16.7  
Snow Depth 1.00 in    
Sea Level Pressure  
Sea Level Pressure 29.91 in    
Wind  
Wind Speed 15 mph (WSW)    
Max Wind Speed 38 mph    
Max Gust Speed 45 mph    
Visibility 10 miles    
Events Snow    
T = Trace of Precipitation, MM = Missing Value Source: NWS Daily Summary

Daily Weather History Graph

Daily Weather History Graph

Search for Another Location

Airport:

Trip Planner

Search our weather history database for the weather conditions in past years. The results will help you decide how hot, cold, wet, or windy it might be!

Date:

Astronomy

Jan. 06, 2013 Rise Set
Actual Time 8:10 AM MST 4:40 PM MST
Civil Twilight 7:33 AM MST 5:16 PM MST
Nautical Twilight 6:54 AM MST 5:56 PM MST
Astronomical Twilight 6:16 AM MST 6:34 PM MST
Moon 2:17 AM MST (1/6) 12:18 PM MST (1/6)
Length of Visible Light 9h 42m
Length of Day
8h 29m
Waning Crescent, 32% of the Moon is Illuminated
Jan 6
Waning Crescent
Jan 11
New
Jan 18
First Quarter
Jan 26
Full
Feb 3
Last Quarter

Hourly Weather History & Observations

Time (MST) Temp. Windchill Dew Point Humidity Pressure Visibility Wind Dir Wind Speed Gust Speed Precip Events Conditions
12:53 AM 5.0 °F - 1.9 °F 87% 30.09 in 9.0 mi Calm Calm - N/A   Clear
1:09 AM 5.0 °F - 1.4 °F 85% 29.95 in 7.0 mi Calm Calm - N/A   Partly Cloudy
1:53 AM 6.1 °F -0.9 °F 1.9 °F 83% 30.05 in 10.0 mi East 3.5 mph - N/A   Clear
2:53 AM 10.4 °F - 6.8 °F 85% 29.90 in 10.0 mi Calm Calm - N/A   Clear
3:53 AM 9.0 °F 2.4 °F 5.0 °F 84% 30.01 in 10.0 mi East 3.5 mph - N/A   Clear
4:53 AM 10.4 °F 4.0 °F 6.8 °F 85% 29.86 in 10.0 mi NE 3.5 mph - N/A   Clear
5:53 AM 10.9 °F 4.7 °F 6.1 °F 81% 29.96 in 10.0 mi North 3.5 mph - N/A   Clear
6:53 AM 21.9 °F 11.0 °F 15.1 °F 75% 29.91 in 10.0 mi SW 10.4 mph - N/A   Clear
7:53 AM 28.0 °F 16.1 °F 19.0 °F 69% 29.91 in 10.0 mi WSW 16.1 mph 26.5 mph N/A   Clear
8:53 AM 28.9 °F 17.3 °F 19.0 °F 67% 29.90 in 10.0 mi WSW 16.1 mph - N/A   Clear
9:53 AM 33.1 °F 20.1 °F 21.9 °F 64% 29.91 in 9.0 mi SW 25.3 mph - 0.00 in Snow Light Snow
10:53 AM 35.1 °F 22.5 °F 24.1 °F 64% 29.91 in 10.0 mi SW 26.5 mph 36.8 mph 0.00 in Snow Light Snow
11:53 AM 36.0 °F 26.0 °F 27.0 °F 70% 29.89 in 10.0 mi WSW 17.3 mph - 0.00 in   Clear
12:53 PM 39.9 °F 29.5 °F 25.0 °F 55% 29.86 in 10.0 mi WSW 24.2 mph 33.4 mph N/A   Clear
1:53 PM 41.0 °F 29.3 °F 25.0 °F 53% 29.83 in 10.0 mi West 33.4 mph 44.9 mph N/A   Clear
2:53 PM 39.9 °F 28.6 °F 24.1 °F 53% 29.84 in 10.0 mi West 28.8 mph 39.1 mph 0.01 in   Clear
3:53 PM 37.9 °F 25.9 °F 25.0 °F 60% 29.84 in 10.0 mi WSW 28.8 mph 33.4 mph 0.00 in Snow Light Snow
4:53 PM 37.0 °F 25.1 °F 24.1 °F 59% 29.86 in 9.0 mi WSW 26.5 mph 36.8 mph 0.00 in Snow Light Snow
5:53 PM 36.0 °F 23.7 °F 24.1 °F 62% 29.88 in 10.0 mi WSW 26.5 mph - 0.00 in   Clear
6:53 PM 34.0 °F 23.0 °F 23.0 °F 64% 29.89 in 10.0 mi West 18.4 mph - 0.00 in   Clear
7:53 PM 30.9 °F 19.8 °F 21.9 °F 69% 29.89 in 10.0 mi WSW 16.1 mph - N/A   Clear
8:53 PM 28.0 °F 15.7 °F 19.9 °F 72% 29.89 in 10.0 mi WSW 17.3 mph - N/A   Clear
9:53 PM 28.0 °F 14.9 °F 19.0 °F 69% 29.88 in 10.0 mi WSW 19.6 mph - N/A   Clear
10:53 PM 25.0 °F 18.1 °F 17.1 °F 72% 29.90 in 10.0 mi SW 5.8 mph - N/A   Partly Cloudy
11:53 PM 26.1 °F - 17.1 °F 69% 29.90 in 10.0 mi Calm Calm - N/A   Clear